This is the latest recevied weather packets stored in our database for station/object IW0HP-3. If no packets are shown the sender has not sent any weather packets the latest 10 day(s).
| Time | Temp. | Humidity | Pressure | Rain* | Wind** | Luminosity | Snow |
|---|---|---|---|---|---|---|---|
| 1778126750 | 15.56° C | 79% | 1014.7 hPa | - | - | - | - |
| 1778125545 | 15.56° C | 81% | 1014.6 hPa | - | - | - | - |
| 1778124340 | 15.56° C | 79% | 1014.7 hPa | - | - | - | - |
| 1778123134 | 15.56° C | 80% | 1014.5 hPa | - | - | - | - |
| 1778121929 | 15.56° C | 80% | 1014.6 hPa | - | - | - | - |
| 1778120724 | 15.56° C | 80% | 1014.8 hPa | - | - | - | - |
| 1778119518 | 15.56° C | 81% | 1014.7 hPa | - | - | - | - |
| 1778118314 | 15.56° C | 81% | 1014.7 hPa | - | - | - | - |
| 1778117108 | 15.56° C | 80% | 1014.5 hPa | - | - | - | - |
| 1778115903 | 15.56° C | 79% | 1014.5 hPa | - | - | - | - |
| 1778114697 | 16.11° C | 78% | 1014.7 hPa | - | - | - | - |
| 1778113492 | 16.11° C | 75% | 1014.8 hPa | - | - | - | - |
| 1778112287 | 16.67° C | 72% | 1014.5 hPa | - | - | - | - |
| 1778111081 | 16.67° C | 72% | 1014.5 hPa | - | - | - | - |
| 1778109877 | 17.22° C | 74% | 1014.5 hPa | - | - | - | - |
| 1778108671 | 17.22° C | 75% | 1014.4 hPa | - | - | - | - |
| 1778107466 | 17.22° C | 73% | 1014.3 hPa | - | - | - | - |
| 1778106260 | 17.22° C | 73% | 1014.3 hPa | - | - | - | - |
| 1778105056 | 17.78° C | 71% | 1014.2 hPa | - | - | - | - |
| 1778103850 | 17.78° C | 69% | 1014.3 hPa | - | - | - | - |
| 1778102645 | 17.78° C | 68% | 1014.4 hPa | - | - | - | - |
| 1778101440 | 17.78° C | 64% | 1014.4 hPa | - | - | - | - |
| 1778100235 | 17.78° C | 63% | 1014.3 hPa | - | - | - | - |
| 1778099029 | 18.33° C | 61% | 1014.4 hPa | - | - | - | - |
| 1778097824 | 18.33° C | 59% | 1014.3 hPa | - | - | - | - |
* Rain since midnight (hover to see other rain measurements)
** Current wind speed in m/s (hover to see current wind gust speed)